Location: Ravensburg
(48.5621°N, 13.4088°E)
Time: 12:46:00
(UTC+01:00)

ISS - Visible Passes

Search period start: 23 February 2017 00:00
Search period end: 05 March 2017 00:00
Orbit: 399 x 408 km, 51.6° (Epoch: 23 February)

Date Brightness Start Highest point End Pass type
(mag) Time Alt. Az. Time Alt. Az. Time Alt. Az.
01 Mar -0.2 05:57:23 10° SSE 05:58:37 12° SE 05:59:49 10° ESE visible
03 Mar -1.0 05:46:53 10° SSW 05:49:33 22° SE 05:52:12 10° E visible
04 Mar -0.5 04:55:24 10° SSE 04:57:09 14° SE 04:58:55 10° ESE visible
